Location: Oberkirch
(48.5323°N, 8.0787°E)
Time: 14:39:23
(UTC+00:00)

SR - All Passes

Search period start: 10 February 2026 00:00
Search period end: 20 February 2026 00:00
Orbit: 574 x 847 km, 66.7° (Epoch: 9 February)

Date Brightness Start Highest point End Pass type
(mag) Time Alt. Az. Time Alt. Az. Time Alt. Az.
10 Feb - 05:08:32 10° SSE 05:11:51 23° ESE 05:15:15 10° ENE visible
10 Feb - 06:49:04 10° WSW 06:53:10 48° NW 06:57:29 10° NNE daylight
10 Feb - 08:33:56 10° NW 08:35:59 13° NNW 08:38:05 10° N daylight
10 Feb - 12:01:01 10° N 12:03:43 15° NNE 12:06:31 10° ENE daylight
10 Feb - 13:41:42 10° NNW 13:46:27 51° NE 13:51:33 10° SE daylight
10 Feb - 15:23:41 10° NW 15:27:57 29° WSW 15:32:29 10° S daylight
11 Feb - 05:53:58 10° SSW 05:58:10 80° ESE 06:02:35 10° NE visible
11 Feb - 07:37:13 10° W 07:40:25 20° NW 07:43:44 10° NNE daylight
11 Feb - 11:07:07 10° N 11:08:00 10° NNE 11:08:54 10° NNE daylight
11 Feb - 12:47:00 10° NNW 12:51:14 29° NE 12:55:43 10° ESE daylight
11 Feb - 14:28:20 10° NW 14:33:12 59° WSW 14:38:26 10° SSE daylight
12 Feb - 04:59:35 10° S 05:03:25 34° ESE 05:07:23 10° NE visible
12 Feb - 06:41:10 10° WSW 06:45:03 34° NW 06:49:09 10° NNE daylight
12 Feb - 08:27:00 10° NW 08:28:09 11° NNW 08:29:20 10° N daylight
12 Feb - 11:52:28 10° NNW 11:55:49 18° NNE 11:59:19 10° ENE daylight
12 Feb - 13:33:22 10° NNW 13:38:16 72° NE 13:43:34 10° SE daylight
12 Feb - 15:15:54 10° WNW 15:19:33 20° WSW 15:23:22 10° SSW daylight
13 Feb - 04:06:23 10° SE 04:08:52 15° ESE 04:11:26 10° ENE visible
13 Feb - 05:45:43 10° SW 05:49:55 68° NW 05:54:22 10° NNE visible
13 Feb - 07:29:47 10° WNW 07:32:28 16° NNW 07:35:15 10° N daylight
13 Feb - 10:58:08 10° N 11:00:12 12° NNE 11:02:17 10° NE daylight
13 Feb - 12:38:36 10° NNW 12:43:10 39° NE 12:48:04 10° ESE daylight
13 Feb - 14:20:14 10° NW 14:24:53 40° WSW 14:29:52 10° S daylight
14 Feb - 04:50:56 10° SSW 04:55:01 54° ESE 04:59:20 10° NE visible
14 Feb - 06:33:24 10° W 06:36:59 25° NW 06:40:45 10° NNE daylight
14 Feb - 11:43:58 10° NNW 11:47:51 23° NE 11:51:57 10° E daylight
14 Feb - 13:25:06 10° NW 13:30:03 81° WSW 13:35:24 10° SSE daylight
14 Feb - 15:08:34 10° WNW 15:11:05 14° WSW 15:13:41 10° SW daylight
15 Feb - 03:57:00 10° SSE 04:00:23 24° ESE 04:03:52 10° ENE visible
15 Feb - 05:37:37 10° WSW 05:41:44 46° NW 05:46:04 10° NNE visible
15 Feb - 07:22:32 10° NW 07:24:35 13° NNW 07:26:42 10° N daylight
15 Feb - 10:49:30 10° N 10:52:20 15° NNE 10:55:16 10° ENE daylight
15 Feb - 12:30:13 10° NNW 12:35:02 53° NE 12:40:13 10° SE daylight
15 Feb - 14:12:15 10° NW 14:16:32 28° WSW 14:21:03 10° S daylight
16 Feb - 03:05:39 10° ESE 03:05:56 10° ESE 03:06:15 10° E visible
16 Feb - 04:42:28 10° SSW 04:46:43 83° ESE 04:51:10 10° NE visible
16 Feb - 06:25:48 10° W 06:28:59 20° NNW 06:32:19 10° NNE daylight
16 Feb - 09:55:24 10° N 09:56:37 11° NNE 09:57:50 10° NNE daylight
16 Feb - 11:35:31 10° NNW 11:39:50 30° NE 11:44:25 10° ESE daylight
16 Feb - 13:16:53 10° NW 13:21:47 57° WSW 13:27:02 10° SSE daylight
17 Feb - 03:48:04 10° S 03:51:56 36° ESE 03:55:59 10° NE visible
17 Feb - 05:29:43 10° WSW 05:33:36 33° NW 05:37:43 10° NNE visible
17 Feb - 07:15:34 10° NNW 07:16:45 11° NNW 07:17:56 10° N daylight
17 Feb - 10:40:57 10° NNW 10:44:25 19° NNE 10:48:02 10° ENE daylight
17 Feb - 12:21:53 10° NNW 12:26:51 75° NE 12:32:12 10° SE daylight
17 Feb - 14:04:29 10° WNW 14:08:06 20° WSW 14:11:53 10° SSW daylight
18 Feb - 02:54:45 10° SSE 02:57:23 16° ESE 03:00:05 10° ENE visible
18 Feb - 04:34:14 10° SW 04:38:27 66° NW 04:42:56 10° NNE visible
18 Feb - 06:18:22 10° WNW 06:21:02 16° NNW 06:23:49 10° N daylight
18 Feb - 09:46:34 10° N 09:48:47 13° NNE 09:51:04 10° NE daylight
18 Feb - 11:27:06 10° NNW 11:31:45 40° NE 11:36:43 10° ESE daylight
18 Feb - 13:08:46 10° NW 13:13:27 39° WSW 13:18:26 10° S daylight
19 Feb - 03:39:24 10° SSW 03:43:33 56° ESE 03:47:54 10° NE visible
19 Feb - 05:21:57 10° W 05:25:32 25° NW 05:29:18 10° NNE visible
19 Feb - 10:32:27 10° NNW 10:36:26 24° NE 10:40:38 10° E daylight
19 Feb - 12:13:36 10° NW 12:18:37 79° SW 12:24:00 10° SSE daylight
19 Feb - 13:57:11 10° WNW 13:59:37 13° WSW 14:02:07 10° SW daylight
